| time (UTC) | temp C | wind direction | speed KPH | gust KPH | rain 1hr cm | rain 24hr cm | rain mn cm | humidity % | barometer mb |
| 20260904152031 | 25 | 9 | 6.4 | 12.9 | 0.00 | 0.00 | 0.00 | 69 | 1011.6 |
| 20260904151551 | 25 | 255 | 4.8 | 11.3 | 0.00 | 0.00 | 0.00 | 72 | 1011.5 |
| 20260904151030 | 25 | 286 | 3.2 | 12.9 | 0.00 | 0.00 | 0.00 | 72 | 1011.6 |
| 20260904150530 | 24 | 13 | 4.8 | 12.9 | 0.00 | 0.00 | 0.00 | 76 | 1011.5 |
| 20260904150045 | 24 | 250 | 0.0 | 4.8 | 0.00 | 0.00 | 0.00 | 81 | 1011.5 |
| 20260904145529 | 23 | 0 | 0.0 | 8.0 | 0.00 | 0.00 | 0.00 | 79 | 1011.5 |
| 20260904145029 | 23 | 0 | 0.0 | 8.0 | 0.00 | 0.00 | 0.00 | 76 | 1011.6 |
| 20260904144600 | 23 | 312 | 0.0 | 4.8 | 0.00 | 0.00 | 0.00 | 81 | 1011.6 |
| 20260904144031 | 23 | 51 | 0.0 | 4.8 | 0.00 | 0.00 | 0.00 | 81 | 1011.4 |
| 20260904143530 | 23 | 0 | 0.0 | 4.8 | 0.00 | 0.00 | 0.00 | 80 | 1011.6 |
| 20260904143059 | 23 | 314 | 1.6 | 4.8 | 0.00 | 0.00 | 0.00 | 83 | 1011.6 |
| 20260904142527 | 22 | 80 | 1.6 | 4.8 | 0.00 | 0.00 | 0.00 | 86 | 1011.7 |
| 20260904142027 | 22 | 299 | 0.0 | 4.8 | 0.00 | 0.00 | 0.00 | 88 | 1011.7 |
| 20260904141554 | 22 | 304 | 0.0 | 6.4 | 0.00 | 0.00 | 0.00 | 93 | 1011.8 |
| 20260904141030 | 22 | 0 | 1.6 | 9.7 | 0.00 | 0.00 | 0.00 | 93 | 1011.6 |
| 20260904140529 | 22 | 0 | 1.6 | 9.7 | 0.00 | 0.00 | 0.00 | 92 | 1011.6 |
| 20260904140049 | 22 | 304 | 1.6 | 11.3 | 0.00 | 0.00 | 0.00 | 91 | 1011.7 |
| 20260904135530 | 22 | 336 | 3.2 | 11.3 | 0.00 | 0.00 | 0.00 | 91 | 1011.5 |
| 20260904135029 | 21 | 338 | 3.2 | 9.7 | 0.00 | 0.00 | 0.00 | 91 | 1011.6 |
| 20260904134559 | 21 | 0 | 0.0 | 6.4 | 0.00 | 0.00 | 0.00 | 93 | 1011.6 |
| 20260904134031 | 21 | 16 | 1.6 | 8.0 | 0.00 | 0.00 | 0.00 | 94 | 1011.6 |
| 20260904133535 | 21 | 13 | 3.2 | 8.0 | 0.00 | 0.00 | 0.00 | 95 | 1011.4 |
| 20260904133056 | 21 | 120 | 1.6 | 8.0 | 0.00 | 0.00 | 0.00 | 97 | 1011.6 |
| 20260904132527 | 20 | 72 | 1.6 | 8.0 | 0.00 | 0.00 | 0.00 | 98 | 1011.7 |
| 20260904132028 | 20 | 249 | 0.0 | 6.4 | 0.00 | 0.00 | 0.00 | 100 | 1011.5 |
| 20260904131553 | 20 | 291 | 1.6 | 8.0 | 0.00 | 0.00 | 0.00 | 100 | 1011.7 |
| 20260904131030 | 20 | 310 | 3.2 | 8.0 | 0.00 | 0.00 | 0.00 | 100 | 1011.6 |
| 20260904130530 | 20 | 133 | 1.6 | 6.4 | 0.00 | 0.00 | 0.00 | 100 | 1011.5 |
| 20260904130047 | 19 | 0 | 1.6 | 6.4 | 0.00 | 0.00 | 0.00 | 100 | 1011.5 |
| 20260904125529 | 19 | 0 | 1.6 | 6.4 | 0.00 | 0.00 | 0.00 | 100 | 1011.7 |
| 20260904125029 | 18 | 354 | 0.0 | 4.8 | 0.00 | 0.00 | 0.00 | 100 | 1011.5 |
| 20260904124544 | 18 | 251 | 0.0 | 4.8 | 0.00 | 0.00 | 0.00 | 100 | 1011.7 |
| 20260904124028 | 18 | 19 | 0.0 | 3.2 | 0.00 | 0.00 | 0.00 | 100 | 1011.6 |
| 20260904123530 | 18 | 0 | 0.0 | 0.0 | 0.00 | 0.00 | 0.00 | 100 | 1011.7 |
| 20260904123053 | 18 | 0 | 0.0 | 0.0 | 0.00 | 0.00 | 0.00 | 100 | 1011.8 |
| 20260904122531 | 17 | 0 | 0.0 | 0.0 | 0.00 | 0.00 | 0.00 | 100 | 1011.8 |
| 20260904122030 | 17 | 0 | 0.0 | 0.0 | 0.00 | 0.00 | 0.00 | 100 | 1011.8 |
| 20260904121553 | 17 | 0 | 0.0 | 0.0 | 0.00 | 0.00 | 0.00 | 100 | 1011.8 |
| 20260904121030 | 17 | 0 | 0.0 | 0.0 | 0.00 | 0.00 | 0.00 | 100 | 1011.7 |
| 20260904120531 | 17 | 0 | 0.0 | 0.0 | 0.00 | 0.00 | 0.00 | 100 | 1011.8 |
| 20260904120048 | 17 | 0 | 0.0 | 0.0 | 0.00 | 0.00 | 0.00 | 100 | 1011.7 |
| 20260904115529 | 17 | 0 | 0.0 | 0.0 | 0.00 | 0.00 | 0.00 | 100 | 1011.7 |
| 20260904115032 | 16 | 0 | 0.0 | 0.0 | 0.00 | 0.00 | 0.00 | 100 | 1011.6 |
| 20260904114545 | 16 | 0 | 0.0 | 0.0 | 0.00 | 0.00 | 0.00 | 100 | 1011.6 |
| 20260904114031 | 16 | 0 | 0.0 | 0.0 | 0.00 | 0.00 | 0.00 | 100 | 1011.5 |
| 20260904113530 | 16 | 0 | 0.0 | 0.0 | 0.00 | 0.00 | 0.00 | 100 | 1011.3 |
| 20260904113045 | 16 | 0 | 0.0 | 0.0 | 0.00 | 0.00 | 0.00 | 99 | 1011.5 |
| 20260904112527 | 16 | 0 | 0.0 | 0.0 | 0.00 | 0.00 | 0.00 | 99 | 1011.3 |
| 20260904112029 | 16 | 0 | 0.0 | 0.0 | 0.00 | 0.00 | 0.00 | 99 | 1011.3 |
| 20260904111546 | 16 | 0 | 0.0 | 0.0 | 0.00 | 0.00 | 0.00 | 99 | 1011.3 |
| 20260904111027 | 16 | 0 | 0.0 | 0.0 | 0.00 | 0.00 | 0.00 | 99 | 1011.2 |
| 20260904110530 | 16 | 0 | 0.0 | 0.0 | 0.00 | 0.00 | 0.00 | 99 | 1011.1 |
| 20260904110051 | 16 | 0 | 0.0 | 0.0 | 0.00 | 0.00 | 0.00 | 99 | 1011.1 |
| 20260904105531 | 16 | 0 | 0.0 | 0.0 | 0.00 | 0.00 | 0.00 | 99 | 1011.1 |
| 20260904105029 | 16 | 0 | 0.0 | 0.0 | 0.00 | 0.00 | 0.00 | 99 | 1011.1 |
| 20260904104547 | 16 | 0 | 0.0 | 0.0 | 0.00 | 0.00 | 0.00 | 99 | 1011.0 |
| 20260904104030 | 16 | 0 | 0.0 | 0.0 | 0.00 | 0.00 | 0.00 | 99 | 1011.1 |
| 20260904103529 | 16 | 0 | 0.0 | 0.0 | 0.00 | 0.00 | 0.00 | 99 | 1011.2 |
| 20260904103044 | 16 | 0 | 0.0 | 0.0 | 0.00 | 0.00 | 0.00 | 99 | 1011.1 |
| 20260904102530 | 16 | 0 | 0.0 | 0.0 | 0.00 | 0.00 | 0.00 | 99 | 1011.2 |
| 20260904102029 | 16 | 0 | 0.0 | 0.0 | 0.00 | 0.00 | 0.00 | 99 | 1011.1 |
| 20260904101552 | 16 | 0 | 0.0 | 0.0 | 0.00 | 0.00 | 0.00 | 99 | 1011.1 |
| 20260904101031 | 16 | 0 | 0.0 | 0.0 | 0.00 | 0.00 | 0.00 | 99 | 1011.0 |
| 20260904100530 | 16 | 0 | 0.0 | 0.0 | 0.00 | 0.00 | 0.00 | 99 | 1010.9 |
| 20260904100053 | 16 | 0 | 0.0 | 0.0 | 0.00 | 0.00 | 0.00 | 99 | 1010.9 |
| 20260904095530 | 16 | 0 | 0.0 | 0.0 | 0.00 | 0.00 | 0.00 | 99 | 1010.8 |
| 20260904095030 | 16 | 0 | 0.0 | 0.0 | 0.00 | 0.00 | 0.00 | 99 | 1010.9 |
| 20260904094546 | 16 | 0 | 0.0 | 0.0 | 0.00 | 0.00 | 0.00 | 99 | 1010.7 |
| 20260904094029 | 17 | 0 | 0.0 | 0.0 | 0.00 | 0.00 | 0.00 | 99 | 1010.7 |
| 20260904093530 | 17 | 0 | 0.0 | 0.0 | 0.00 | 0.00 | 0.00 | 99 | 1010.7 |
| 20260904093052 | 17 | 0 | 0.0 | 0.0 | 0.00 | 0.00 | 0.00 | 99 | 1010.7 |
| 20260904092527 | 17 | 0 | 0.0 | 0.0 | 0.00 | 0.00 | 0.00 | 99 | 1010.7 |
| 20260904092031 | 17 | 0 | 0.0 | 0.0 | 0.00 | 0.00 | 0.00 | 99 | 1010.8 |
| 20260904091556 | 17 | 0 | 0.0 | 0.0 | 0.00 | 0.00 | 0.00 | 99 | 1010.8 |
| 20260904091031 | 17 | 0 | 0.0 | 0.0 | 0.00 | 0.00 | 0.00 | 99 | 1010.6 |
| 20260904090530 | 17 | 0 | 0.0 | 0.0 | 0.00 | 0.00 | 0.00 | 99 | 1010.5 |
| 20260904090046 | 17 | 0 | 0.0 | 0.0 | 0.00 | 0.00 | 0.00 | 99 | 1010.6 |
| 20260904085529 | 17 | 0 | 0.0 | 0.0 | 0.00 | 0.00 | 0.00 | 99 | 1010.7 |
| 20260904085031 | 17 | 0 | 0.0 | 0.0 | 0.00 | 0.00 | 0.00 | 99 | 1010.6 |
| 20260904084557 | 17 | 0 | 0.0 | 0.0 | 0.00 | 0.00 | 0.00 | 99 | 1010.7 |
| 20260904084029 | 17 | 0 | 0.0 | 0.0 | 0.00 | 0.00 | 0.00 | 99 | 1010.7 |
| 20260904083531 | 17 | 0 | 0.0 | 0.0 | 0.00 | 0.00 | 0.00 | 99 | 1010.6 |
| 20260904083052 | 17 | 0 | 0.0 | 0.0 | 0.00 | 0.00 | 0.00 | 99 | 1010.4 |
| 20260904082530 | 17 | 0 | 0.0 | 0.0 | 0.00 | 0.00 | 0.00 | 99 | 1010.5 |
| 20260904082032 | 17 | 0 | 0.0 | 0.0 | 0.00 | 0.00 | 0.00 | 99 | 1010.5 |
| 20260904081545 | 17 | 0 | 0.0 | 0.0 | 0.00 | 0.00 | 0.00 | 99 | 1010.4 |
| 20260904081029 | 17 | 0 | 0.0 | 0.0 | 0.00 | 0.00 | 0.00 | 99 | 1010.4 |
| 20260904080529 | 17 | 0 | 0.0 | 0.0 | 0.00 | 0.00 | 0.00 | 99 | 1010.4 |
| 20260904080053 | 17 | 0 | 0.0 | 0.0 | 0.00 | 0.00 | 0.00 | 99 | 1010.4 |
| 20260904075531 | 17 | 0 | 0.0 | 0.0 | 0.00 | 0.00 | 0.00 | 99 | 1010.5 |
| 20260904075032 | 17 | 0 | 0.0 | 0.0 | 0.00 | 0.00 | 0.00 | 99 | 1010.4 |
| 20260904074601 | 17 | 0 | 0.0 | 0.0 | 0.00 | 0.00 | 0.00 | 99 | 1010.5 |
| 20260904074033 | 17 | 0 | 0.0 | 0.0 | 0.00 | 0.00 | 0.00 | 99 | 1010.7 |
| 20260904073529 | 17 | 0 | 0.0 | 0.0 | 0.00 | 0.00 | 0.00 | 99 | 1010.5 |
| 20260904073047 | 17 | 0 | 0.0 | 0.0 | 0.00 | 0.00 | 0.00 | 99 | 1010.8 |
| 20260904072529 | 17 | 0 | 0.0 | 0.0 | 0.00 | 0.00 | 0.00 | 99 | 1010.8 |
| 20260904072029 | 17 | 0 | 0.0 | 0.0 | 0.00 | 0.00 | 0.00 | 99 | 1011.1 |
| 20260904071623 | 17 | 0 | 0.0 | 0.0 | 0.00 | 0.00 | 0.00 | 99 | 1011.2 |
| 20260904071032 | 17 | 0 | 0.0 | 0.0 | 0.00 | 0.00 | 0.00 | 99 | 1011.2 |
| 20260904070527 | 17 | 0 | 0.0 | 0.0 | 0.00 | 0.00 | 0.00 | 99 | 1011.2 |
| 20260904070141 | 17 | 0 | 0.0 | 0.0 | 0.00 | 0.00 | 0.00 | 99 | 1011.3 |
| 20260904070106 | 17 | 0 | 0.0 | 0.0 | 0.00 | 0.00 | 0.00 | 99 | 1011.3 |
| 20260904065527 | 17 | 0 | 0.0 | 0.0 | 0.00 | 0.08 | 0.00 | 99 | 1011.4 |
| 20260904065030 | 17 | 0 | 0.0 | 0.0 | 0.00 | 0.08 | 0.00 | 99 | 1011.2 |
| 20260904064604 | 17 | 0 | 0.0 | 0.0 | 0.00 | 0.08 | 0.00 | 99 | 1011.1 |
| 20260904064030 | 17 | 0 | 0.0 | 0.0 | 0.00 | 0.08 | 0.00 | 99 | 1011.1 |
| 20260904063531 | 17 | 0 | 0.0 | 0.0 | 0.00 | 0.08 | 0.00 | 99 | 1011.1 |
| 20260904063051 | 17 | 0 | 0.0 | 0.0 | 0.00 | 0.08 | 0.00 | 99 | 1011.3 |
| 20260904062529 | 17 | 0 | 0.0 | 0.0 | 0.00 | 0.08 | 0.00 | 99 | 1011.2 |
| 20260904062030 | 17 | 0 | 0.0 | 0.0 | 0.00 | 0.08 | 0.00 | 99 | 1011.3 |
| 20260904061545 | 17 | 0 | 0.0 | 0.0 | 0.00 | 0.08 | 0.00 | 99 | 1011.4 |
| 20260904061029 | 17 | 0 | 0.0 | 0.0 | 0.00 | 0.08 | 0.00 | 99 | 1011.2 |
| 20260904060529 | 17 | 0 | 0.0 | 0.0 | 0.00 | 0.08 | 0.00 | 99 | 1011.3 |
| 20260904060051 | 17 | 0 | 0.0 | 0.0 | 0.00 | 0.08 | 0.00 | 99 | 1011.4 |
| 20260904055530 | 17 | 0 | 0.0 | 0.0 | 0.00 | 0.28 | 0.00 | 99 | 1011.6 |
| 20260904055029 | 17 | 0 | 0.0 | 0.0 | 0.00 | 0.28 | 0.00 | 99 | 1011.5 |
| 20260904054546 | 17 | 0 | 0.0 | 0.0 | 0.00 | 0.28 | 0.00 | 99 | 1011.5 |
| 20260904054030 | 17 | 0 | 0.0 | 0.0 | 0.00 | 0.28 | 0.00 | 99 | 1011.6 |
| 20260904053529 | 17 | 0 | 0.0 | 0.0 | 0.00 | 0.28 | 0.00 | 99 | 1011.6 |
| 20260904053100 | 17 | 0 | 0.0 | 0.0 | 0.00 | 0.28 | 0.00 | 99 | 1011.8 |
| 20260904052530 | 17 | 0 | 0.0 | 0.0 | 0.00 | 0.28 | 0.00 | 99 | 1011.8 |
| 20260904052030 | 17 | 0 | 0.0 | 0.0 | 0.00 | 0.28 | 0.00 | 99 | 1012.0 |
| 20260904051545 | 17 | 0 | 0.0 | 0.0 | 0.00 | 0.28 | 0.00 | 99 | 1012.0 |
| 20260904051029 | 17 | 0 | 0.0 | 0.0 | 0.00 | 0.28 | 0.00 | 99 | 1012.0 |
| 20260904050528 | 17 | 0 | 0.0 | 0.0 | 0.00 | 0.28 | 0.00 | 99 | 1012.0 |
| 20260904050053 | 17 | 0 | 0.0 | 0.0 | 0.00 | 0.28 | 0.00 | 99 | 1012.0 |
| 20260904045527 | 17 | 0 | 0.0 | 0.0 | 0.00 | 0.28 | 0.00 | 99 | 1012.1 |
| 20260904045029 | 17 | 0 | 0.0 | 0.0 | 0.00 | 0.28 | 0.00 | 99 | 1012.2 |
| 20260904044546 | 18 | 0 | 0.0 | 0.0 | 0.00 | 0.28 | 0.00 | 99 | 1012.2 |
| 20260904044029 | 18 | 0 | 0.0 | 0.0 | 0.00 | 0.28 | 0.00 | 99 | 1012.0 |
| 20260904043529 | 18 | 0 | 0.0 | 0.0 | 0.00 | 0.28 | 0.00 | 99 | 1012.1 |
| 20260904043046 | 18 | 0 | 0.0 | 0.0 | 0.00 | 0.28 | 0.00 | 99 | 1012.1 |
| 20260904042530 | 18 | 0 | 0.0 | 0.0 | 0.00 | 0.28 | 0.00 | 99 | 1012.2 |
| 20260904042032 | 18 | 0 | 0.0 | 0.0 | 0.00 | 0.28 | 0.00 | 99 | 1012.2 |
| 20260904041547 | 18 | 0 | 0.0 | 0.0 | 0.00 | 0.28 | 0.00 | 99 | 1012.1 |
| 20260904041029 | 18 | 0 | 0.0 | 0.0 | 0.00 | 0.28 | 0.00 | 99 | 1012.1 |
| 20260904040530 | 18 | 0 | 0.0 | 0.0 | 0.00 | 0.28 | 0.00 | 98 | 1012.2 |
| 20260904040049 | 18 | 0 | 0.0 | 0.0 | 0.00 | 0.28 | 0.00 | 99 | 1012.1 |
| 20260904035531 | 18 | 0 | 0.0 | 0.0 | 0.00 | 0.28 | 0.28 | 99 | 1012.2 |
| 20260904035030 | 18 | 0 | 0.0 | 0.0 | 0.00 | 0.28 | 0.28 | 99 | 1012.2 |
| 20260904034544 | 18 | 0 | 0.0 | 0.0 | 0.00 | 0.28 | 0.28 | 98 | 1012.3 |
| 20260904034031 | 18 | 0 | 0.0 | 0.0 | 0.00 | 0.28 | 0.28 | 99 | 1012.4 |
| 20260904033531 | 18 | 0 | 0.0 | 0.0 | 0.00 | 0.28 | 0.28 | 99 | 1012.4 |
| 20260904033055 | 18 | 0 | 0.0 | 0.0 | 0.00 | 0.28 | 0.28 | 99 | 1012.4 |
| 20260904032529 | 18 | 0 | 0.0 | 0.0 | 0.00 | 0.28 | 0.28 | 99 | 1012.4 |
| 20260904032029 | 18 | 0 | 0.0 | 0.0 | 0.00 | 0.28 | 0.28 | 98 | 1012.5 |
| 20260904031600 | 19 | 0 | 0.0 | 0.0 | 0.00 | 0.28 | 0.28 | 98 | 1012.5 |
| 20260904031033 | 19 | 0 | 0.0 | 0.0 | 0.00 | 0.28 | 0.28 | 99 | 1012.4 |
| 20260904030529 | 19 | 0 | 0.0 | 0.0 | 0.00 | 0.28 | 0.28 | 99 | 1012.5 |
| 20260904030046 | 19 | 0 | 0.0 | 0.0 | 0.00 | 0.28 | 0.28 | 99 | 1012.5 |
| 20260904025529 | 19 | 0 | 0.0 | 0.0 | 0.00 | 0.28 | 0.28 | 99 | 1012.6 |
| 20260904025027 | 19 | 0 | 0.0 | 0.0 | 0.00 | 0.28 | 0.28 | 98 | 1012.5 |
| 20260904024552 | 19 | 0 | 0.0 | 0.0 | 0.00 | 0.28 | 0.28 | 98 | 1012.5 |
| 20260904024029 | 20 | 0 | 0.0 | 0.0 | 0.00 | 0.28 | 0.28 | 99 | 1012.6 |
| 20260904023530 | 20 | 0 | 0.0 | 0.0 | 0.00 | 0.28 | 0.28 | 99 | 1012.7 |
| 20260904023048 | 20 | 0 | 0.0 | 0.0 | 0.00 | 0.28 | 0.28 | 98 | 1012.7 |
| 20260904022527 | 20 | 0 | 0.0 | 0.0 | 0.00 | 0.28 | 0.28 | 98 | 1012.9 |
| 20260904022029 | 20 | 0 | 0.0 | 0.0 | 0.00 | 0.28 | 0.28 | 98 | 1012.8 |
| 20260904021555 | 20 | 0 | 0.0 | 0.0 | 0.00 | 0.28 | 0.28 | 98 | 1012.7 |
| 20260904021032 | 20 | 0 | 0.0 | 0.0 | 0.00 | 0.28 | 0.28 | 98 | 1012.7 |
| 20260904020527 | 20 | 0 | 0.0 | 0.0 | 0.00 | 0.28 | 0.28 | 98 | 1012.6 |
| 20260904020053 | 20 | 0 | 0.0 | 0.0 | 0.00 | 0.28 | 0.28 | 98 | 1012.7 |
| 20260904015528 | 20 | 0 | 0.0 | 0.0 | 0.00 | 0.28 | 0.28 | 98 | 1012.7 |
| 20260904015028 | 20 | 0 | 0.0 | 0.0 | 0.00 | 0.28 | 0.28 | 98 | 1012.8 |
| 20260904014548 | 20 | 0 | 0.0 | 0.0 | 0.00 | 0.28 | 0.28 | 98 | 1012.9 |
| 20260904014030 | 20 | 0 | 0.0 | 0.0 | 0.00 | 0.28 | 0.28 | 98 | 1013.0 |
| 20260904013534 | 20 | 0 | 0.0 | 0.0 | 0.00 | 0.28 | 0.28 | 98 | 1013.0 |
| 20260904013044 | 20 | 0 | 0.0 | 0.0 | 0.00 | 0.28 | 0.28 | 98 | 1012.7 |
| 20260904012532 | 20 | 0 | 0.0 | 0.0 | 0.00 | 0.28 | 0.28 | 98 | 1012.9 |
| 20260904012031 | 20 | 0 | 0.0 | 0.0 | 0.00 | 0.28 | 0.28 | 98 | 1012.8 |
| 20260904011555 | 20 | 0 | 0.0 | 0.0 | 0.00 | 0.28 | 0.28 | 98 | 1012.9 |
| 20260904011029 | 21 | 0 | 0.0 | 0.0 | 0.00 | 0.28 | 0.28 | 98 | 1012.8 |
| 20260904010532 | 21 | 0 | 0.0 | 0.0 | 0.00 | 0.28 | 0.28 | 98 | 1012.8 |
| 20260904010053 | 21 | 0 | 0.0 | 0.0 | 0.00 | 0.28 | 0.28 | 98 | 1012.9 |
| 20260904005527 | 21 | 0 | 0.0 | 0.0 | 0.00 | 0.28 | 0.28 | 98 | 1012.8 |
| 20260904005030 | 21 | 0 | 0.0 | 0.0 | 0.00 | 0.28 | 0.28 | 98 | 1012.8 |
| 20260904004548 | 21 | 0 | 0.0 | 0.0 | 0.00 | 0.28 | 0.28 | 98 | 1012.9 |
| 20260904004030 | 21 | 0 | 0.0 | 0.0 | 0.00 | 0.28 | 0.28 | 98 | 1012.8 |
| 20260904003529 | 21 | 0 | 0.0 | 0.0 | 0.00 | 0.28 | 0.28 | 98 | 1012.7 |
| 20260904003056 | 21 | 0 | 0.0 | 0.0 | 0.00 | 0.28 | 0.28 | 98 | 1012.8 |
| 20260904002534 | 21 | 0 | 0.0 | 0.0 | 0.00 | 0.28 | 0.28 | 97 | 1012.7 |
| 20260904002034 | 21 | 0 | 0.0 | 0.0 | 0.00 | 0.28 | 0.28 | 97 | 1012.6 |
| 20260904001552 | 21 | 0 | 0.0 | 0.0 | 0.00 | 0.28 | 0.28 | 97 | 1012.4 |
| 20260904001030 | 21 | 0 | 0.0 | 0.0 | 0.00 | 0.28 | 0.28 | 97 | 1012.3 |
| 20260904000530 | 21 | 0 | 0.0 | 0.0 | 0.00 | 0.28 | 0.28 | 97 | 1012.2 |
| 20260904000052 | 21 | 0 | 0.0 | 0.0 | 0.00 | 0.28 | 0.28 | 97 | 1012.1 |
| 20260903235532 | 22 | 0 | 0.0 | 0.0 | 0.00 | 0.28 | 0.28 | 97 | 1012.0 |
| 20260903235030 | 22 | 0 | 0.0 | 0.0 | 0.00 | 0.28 | 0.28 | 96 | 1012.1 |
| 20260903234546 | 22 | 0 | 0.0 | 0.0 | 0.00 | 0.28 | 0.28 | 96 | 1012.1 |
| 20260903234030 | 22 | 0 | 0.0 | 0.0 | 0.00 | 0.28 | 0.28 | 96 | 1012.0 |
| 20260903233530 | 22 | 0 | 0.0 | 0.0 | 0.00 | 0.28 | 0.28 | 96 | 1012.0 |
| 20260903233047 | 22 | 0 | 0.0 | 0.0 | 0.00 | 0.28 | 0.28 | 96 | 1012.0 |
| 20260903232530 | 22 | 0 | 0.0 | 0.0 | 0.00 | 0.28 | 0.28 | 95 | 1012.1 |
| 20260903232029 | 22 | 0 | 0.0 | 0.0 | 0.00 | 0.28 | 0.28 | 95 | 1012.1 |
| 20260903231605 | 23 | 0 | 0.0 | 0.0 | 0.00 | 0.28 | 0.28 | 94 | 1012.2 |
| 20260903231030 | 23 | 0 | 0.0 | 0.0 | 0.00 | 0.28 | 0.28 | 94 | 1012.1 |
| 20260903230529 | 23 | 0 | 0.0 | 0.0 | 0.00 | 0.28 | 0.28 | 93 | 1012.0 |
| 20260903230054 | 23 | 0 | 0.0 | 0.0 | 0.00 | 0.28 | 0.28 | 93 | 1012.0 |
| 20260903225531 | 23 | 0 | 0.0 | 0.0 | 0.00 | 0.28 | 0.28 | 93 | 1012.0 |
| 20260903225027 | 23 | 0 | 0.0 | 0.0 | 0.00 | 0.28 | 0.28 | 92 | 1012.0 |
| 20260903224548 | 24 | 0 | 0.0 | 0.0 | 0.00 | 0.28 | 0.28 | 91 | 1012.0 |
| 20260903224035 | 24 | 0 | 0.0 | 0.0 | 0.00 | 0.28 | 0.28 | 91 | 1011.9 |
| 20260903223529 | 24 | 0 | 0.0 | 0.0 | 0.00 | 0.28 | 0.28 | 91 | 1011.9 |
| 20260903223045 | 25 | 0 | 0.0 | 0.0 | 0.00 | 0.28 | 0.28 | 90 | 1012.0 |
| 20260903222532 | 25 | 0 | 0.0 | 0.0 | 0.00 | 0.28 | 0.28 | 90 | 1012.0 |
| 20260903222029 | 25 | 0 | 0.0 | 0.0 | 0.00 | 0.28 | 0.28 | 89 | 1012.0 |
| 20260903221553 | 25 | 0 | 0.0 | 0.0 | 0.00 | 0.28 | 0.28 | 88 | 1011.9 |
| 20260903221035 | 26 | 0 | 0.0 | 0.0 | 0.00 | 0.28 | 0.28 | 86 | 1012.1 |
| 20260903220528 | 26 | 0 | 0.0 | 0.0 | 0.00 | 0.28 | 0.28 | 84 | 1012.0 |
| 20260903220054 | 26 | 0 | 0.0 | 1.6 | 0.00 | 0.28 | 0.28 | 87 | 1012.1 |
| 20260903215530 | 26 | 0 | 0.0 | 1.6 | 0.00 | 0.28 | 0.28 | 87 | 1012.2 |
| 20260903215028 | 26 | 0 | 0.0 | 1.6 | 0.00 | 0.28 | 0.28 | 86 | 1012.2 |
| 20260903214557 | 25 | 0 | 0.0 | 0.0 | 0.00 | 0.28 | 0.28 | 90 | 1012.2 |
| 20260903214035 | 25 | 0 | 0.0 | 0.0 | 0.00 | 0.28 | 0.28 | 89 | 1012.3 |
| 20260903213528 | 25 | 0 | 0.0 | 0.0 | 0.00 | 0.28 | 0.28 | 91 | 1012.3 |
| 20260903213045 | 25 | 0 | 0.0 | 0.0 | 0.00 | 0.28 | 0.28 | 91 | 1012.4 |
| 20260903212530 | 25 | 0 | 0.0 | 1.6 | 0.00 | 0.28 | 0.28 | 91 | 1012.4 |
| 20260903212029 | 25 | 0 | 0.0 | 1.6 | 0.00 | 0.28 | 0.28 | 90 | 1012.4 |
| 20260903211553 | 25 | 0 | 0.0 | 0.0 | 0.00 | 0.28 | 0.28 | 91 | 1012.4 |
| 20260903211033 | 25 | 0 | 0.0 | 0.0 | 0.00 | 0.28 | 0.28 | 90 | 1012.2 |
| 20260903210529 | 25 | 0 | 0.0 | 0.0 | 0.00 | 0.28 | 0.28 | 90 | 1012.2 |
| 20260903210053 | 25 | 0 | 0.0 | 0.0 | 0.00 | 0.28 | 0.28 | 89 | 1012.3 |
| 20260903205526 | 25 | 0 | 0.0 | 0.0 | 0.00 | 0.28 | 0.28 | 89 | 1012.3 |
| 20260903205031 | 25 | 0 | 0.0 | 0.0 | 0.00 | 0.28 | 0.28 | 89 | 1012.3 |
| 20260903204552 | 25 | 0 | 0.0 | 1.6 | 0.00 | 0.28 | 0.28 | 89 | 1012.2 |
| 20260903204032 | 25 | 0 | 0.0 | 1.6 | 0.00 | 0.28 | 0.28 | 88 | 1012.3 |
| 20260903203528 | 25 | 0 | 0.0 | 0.0 | 0.00 | 0.28 | 0.28 | 90 | 1012.4 |
| 20260903203052 | 25 | 0 | 0.0 | 0.0 | 0.00 | 0.28 | 0.28 | 87 | 1012.3 |
| 20260903202529 | 25 | 0 | 0.0 | 0.0 | 0.00 | 0.28 | 0.28 | 89 | 1012.2 |
| 20260903202032 | 25 | 0 | 0.0 | 0.0 | 0.00 | 0.28 | 0.28 | 89 | 1012.1 |
| 20260903201544 | 25 | 0 | 0.0 | 1.6 | 0.00 | 0.28 | 0.28 | 89 | 1012.1 |
| 20260903201030 | 25 | 0 | 0.0 | 1.6 | 0.00 | 0.28 | 0.28 | 88 | 1012.2 |
| 20260903200529 | 25 | 0 | 0.0 | 1.6 | 0.00 | 0.28 | 0.28 | 88 | 1012.3 |
| 20260903200053 | 25 | 0 | 0.0 | 0.0 | 0.00 | 0.28 | 0.28 | 89 | 1012.2 |
| 20260903195528 | 25 | 0 | 0.0 | 0.0 | 0.00 | 0.28 | 0.28 | 87 | 1012.2 |
| 20260903195027 | 25 | 0 | 0.0 | 0.0 | 0.00 | 0.28 | 0.28 | 87 | 1012.3 |
| 20260903194547 | 25 | 0 | 0.0 | 0.0 | 0.00 | 0.28 | 0.28 | 88 | 1012.3 |
| 20260903194027 | 25 | 0 | 0.0 | 0.0 | 0.00 | 0.28 | 0.28 | 89 | 1012.5 |
| 20260903193528 | 25 | 0 | 0.0 | 0.0 | 0.00 | 0.28 | 0.28 | 88 | 1012.5 |
| 20260903193047 | 25 | 0 | 0.0 | 1.6 | 0.00 | 0.28 | 0.28 | 87 | 1012.7 |
| 20260903192530 | 25 | 0 | 0.0 | 1.6 | 0.00 | 0.28 | 0.28 | 86 | 1012.5 |
| 20260903192029 | 25 | 0 | 0.0 | 1.6 | 0.00 | 0.28 | 0.28 | 85 | 1012.8 |
| 20260903191552 | 26 | 24 | 1.6 | 3.2 | 0.00 | 0.28 | 0.28 | 83 | 1012.7 |
| 20260903191028 | 26 | 0 | 1.6 | 4.8 | 0.00 | 0.28 | 0.28 | 81 | 1012.8 |
| 20260903190527 | 26 | 165 | 0.0 | 4.8 | 0.00 | 0.28 | 0.28 | 84 | 1012.8 |
| 20260903190052 | 26 | 1 | 0.0 | 4.8 | 0.00 | 0.28 | 0.28 | 84 | 1012.8 |
| 20260903185530 | 26 | 0 | 0.0 | 0.0 | 0.00 | 0.28 | 0.28 | 86 | 1012.8 |
| 20260903185032 | 26 | 0 | 0.0 | 1.6 | 0.00 | 0.28 | 0.28 | 85 | 1012.8 |
| 20260903184555 | 25 | 0 | 0.0 | 1.6 | 0.00 | 0.28 | 0.28 | 85 | 1012.9 |
| 20260903184028 | 25 | 0 | 0.0 | 1.6 | 0.00 | 0.28 | 0.28 | 84 | 1013.0 |
| 20260903183527 | 25 | 0 | 0.0 | 1.6 | 0.00 | 0.28 | 0.28 | 84 | 1013.1 |
| 20260903183047 | 25 | 196 | 0.0 | 1.6 | 0.00 | 0.28 | 0.28 | 85 | 1013.1 |
| 20260903182526 | 25 | 0 | 0.0 | 6.4 | 0.00 | 0.28 | 0.28 | 85 | 1013.2 |
| 20260903182028 | 25 | 115 | 1.6 | 6.4 | 0.00 | 0.28 | 0.28 | 84 | 1013.3 |
| 20260903181551 | 25 | 206 | 1.6 | 6.4 | 0.00 | 0.28 | 0.28 | 83 | 1013.4 |
| 20260903181028 | 25 | 0 | 0.0 | 6.4 | 0.00 | 0.28 | 0.28 | 85 | 1013.3 |
| 20260903180529 | 25 | 266 | 1.6 | 6.4 | 0.00 | 0.28 | 0.28 | 85 | 1013.4 |
| 20260903180112 | 24 | 222 | 0.0 | 6.4 | 0.00 | 0.28 | 0.28 | 88 | 1013.4 |
| 20260903175527 | 23 | 115 | 0.0 | 6.4 | 0.00 | 0.28 | 0.28 | 89 | 1013.5 |
| 20260903175029 | 23 | 255 | 3.2 | 6.4 | 0.00 | 0.28 | 0.28 | 89 | 1013.6 |
| 20260903174547 | 23 | 0 | 0.0 | 0.0 | 0.00 | 0.28 | 0.28 | 91 | 1013.6 |
| 20260903174026 | 22 | 0 | 0.0 | 0.0 | 0.00 | 0.28 | 0.28 | 91 | 1013.7 |
| 20260903173528 | 22 | 0 | 0.0 | 1.6 | 0.00 | 0.28 | 0.28 | 90 | 1013.9 |
| 20260903173046 | 22 | 0 | 0.0 | 1.6 | 0.00 | 0.28 | 0.28 | 90 | 1013.8 |
| 20260903172529 | 22 | 0 | 0.0 | 1.6 | 0.00 | 0.28 | 0.28 | 88 | 1014.0 |
| 20260903172028 | 22 | 0 | 0.0 | 1.6 | 0.00 | 0.28 | 0.28 | 88 | 1013.9 |
| 20260903171554 | 23 | 0 | 0.0 | 3.2 | 0.00 | 0.28 | 0.28 | 89 | 1013.9 |
| 20260903171031 | 22 | 0 | 0.0 | 3.2 | 0.00 | 0.28 | 0.28 | 91 | 1013.8 |
| 20260903170530 | 22 | 294 | 0.0 | 8.0 | 0.00 | 0.28 | 0.28 | 90 | 1013.6 |
| 20260903170052 | 22 | 0 | 0.0 | 8.0 | 0.00 | 0.28 | 0.28 | 89 | 1013.9 |
| 20260903165527 | 22 | 238 | 0.0 | 3.2 | 0.00 | 0.28 | 0.28 | 89 | 1013.9 |
| 20260903165029 | 22 | 0 | 0.0 | 3.2 | 0.00 | 0.28 | 0.28 | 91 | 1014.0 |
| 20260903164559 | 22 | 63 | 0.0 | 3.2 | 0.00 | 0.28 | 0.28 | 90 | 1014.0 |
| 20260903164032 | 22 | 196 | 0.0 | 3.2 | 0.00 | 0.28 | 0.28 | 90 | 1014.2 |
| 20260903163529 | 22 | 0 | 0.0 | 1.6 | 0.00 | 0.28 | 0.28 | 91 | 1014.3 |
| 20260903163046 | 21 | 0 | 0.0 | 1.6 | 0.00 | 0.28 | 0.28 | 91 | 1014.4 |
| 20260903162527 | 21 | 126 | 0.0 | 3.2 | 0.00 | 0.28 | 0.28 | 91 | 1014.5 |
| 20260903162027 | 21 | 285 | 0.0 | 3.2 | 0.00 | 0.28 | 0.28 | 92 | 1014.3 |
| 20260903161554 | 21 | 0 | 0.0 | 3.2 | 0.00 | 0.28 | 0.28 | 91 | 1014.4 |
| 20260903161030 | 21 | 251 | 0.0 | 1.6 | 0.00 | 0.28 | 0.28 | 92 | 1014.3 |
| 20260903160529 | 21 | 129 | 0.0 | 1.6 | 0.00 | 0.28 | 0.28 | 93 | 1014.5 |
| 20260903160054 | 20 | 0 | 0.0 | 1.6 | 0.00 | 0.28 | 0.28 | 93 | 1014.3 |
| 20260903155535 | 20 | 0 | 0.0 | 1.6 | 0.00 | 0.28 | 0.28 | 93 | 1014.4 |
| 20260903155030 | 20 | 0 | 0.0 | 1.6 | 0.00 | 0.28 | 0.28 | 93 | 1014.6 |
| 20260903154545 | 20 | 229 | 0.0 | 3.2 | 0.00 | 0.28 | 0.28 | 95 | 1014.5 |
| 20260903154029 | 20 | 0 | 0.0 | 3.2 | 0.00 | 0.28 | 0.28 | 94 | 1014.4 |
| 20260903153528 | 20 | 106 | 0.0 | 1.6 | 0.00 | 0.28 | 0.28 | 95 | 1014.7 |
| 20260903153048 | 20 | 0 | 0.0 | 1.6 | 0.00 | 0.28 | 0.28 | 96 | 1014.5 |
| 20260903152530 | 19 | 0 | 0.0 | 1.6 | 0.00 | 0.28 | 0.28 | 95 | 1014.6 |